DW4070 Weather Reports


time (UTC)temp
F
wind
direction
speed
knots
gust
knots
rain 1hr
in
rain 24hr
in
rain mn
in
humidity
%
barometer
mb
20260507094549 50 61 0.0 0.0 0.04 0.30 0.22 94 1010.6
20260507093053 50 56 0.0 1.7 0.06 0.28 0.21 93 1010.4
20260507091547 50 243 0.0 0.0 0.08 0.28 0.21 94 1010.4
20260507090045 50 236 0.0 0.0 0.08 0.27 0.19 94 1010.3
20260507084547 50 115 0.0 0.0 0.08 0.26 0.18 94 1010.3
20260507083044 50 115 0.0 0.0 0.06 0.23 0.15 93 1010.3
20260507081543 50 115 0.0 0.0 0.04 0.20 0.12 93 1010.5
20260507080042 51 115 0.0 0.0 0.07 0.19 0.11 93 1010.6
20260507074541 51 115 0.0 0.0 0.08 0.18 0.10 93 1010.5
20260507073040 51 118 0.0 0.0 0.07 0.17 0.09 93 1010.4
20260507071600 51 118 0.0 0.0 0.07 0.16 0.08 92 1010.2
20260507070037 51 118 0.0 0.0 0.04 0.12 0.04 91 1010.6
20260507064533 52 121 0.0 0.0 0.02 0.10 0.02 91 1010.0
20260507063034 52 121 0.0 0.0 0.02 0.10 0.02 90 1009.8
20260507061530 53 196 0.0 0.0 0.01 0.09 0.01 90 1010.3
20260507060030 53 183 0.0 0.0 0.00 0.08 0.00 89 1010.0
20260507054524 54 67 0.0 0.0 0.00 0.08 0.00 89 1009.5
20260507053022 54 67 0.0 0.0 0.00 0.08 0.00 88 1009.7
20260507051528 55 68 0.0 0.9 0.00 0.08 0.00 89 1009.8
20260507050020 55 51 0.0 0.0 0.00 0.08 0.00 90 1009.6
20260507044515 56 38 0.0 0.9 0.00 0.08 0.00 91 1009.8
20260507043014 56 50 0.0 0.0 0.00 0.08 0.00 92 1009.8
20260507041512 56 43 0.0 0.9 0.00 0.08 0.00 92 1009.8
20260507040009 57 127 0.0 0.0 0.00 0.08 0.08 93 1009.6
20260507034519 57 149 0.0 0.0 0.00 0.08 0.08 94 1009.2
20260507033015 57 149 0.0 0.0 0.00 0.08 0.08 94 1009.2
20260507031507 58 149 0.0 0.0 0.00 0.08 0.08 94 1009.3
20260507030007 58 149 0.0 0.0 0.00 0.08 0.08 94 1009.7
20260507024509 58 149 0.0 0.0 0.01 0.08 0.08 95 1009.6
20260507023013 58 149 0.0 0.0 0.02 0.08 0.08 95 1009.6
20260507021505 58 149 0.0 0.0 0.02 0.08 0.08 95 1009.7
20260507020006 58 262 0.0 0.0 0.02 0.08 0.08 95 1009.7
20260507014508 58 254 0.0 0.0 0.01 0.07 0.07 94 1009.2
20260507013003 58 254 0.0 0.0 0.00 0.06 0.06 94 1009.2
20260507011505 58 254 0.0 0.0 0.00 0.06 0.06 94 1009.2
20260507010003 58 254 0.0 0.0 0.00 0.06 0.06 94 1009.1
20260507004502 58 254 0.0 0.0 0.00 0.06 0.06 94 1009.0
20260507003002 59 254 0.0 0.0 0.00 0.06 0.06 94 1008.9
20260507001500 59 254 0.0 0.0 0.00 0.06 0.06 94 1008.8
20260506234559 59 231 0.0 0.0 0.00 0.06 0.06 94 1008.6
20260506233100 59 221 0.0 0.0 0.00 0.06 0.06 94 1008.8
20260506231602 59 221 0.0 0.0 0.00 0.06 0.06 94 1008.9
20260506230059 59 221 0.0 0.0 0.00 0.06 0.06 94 1008.6
20260506224556 59 221 0.0 0.9 0.00 0.06 0.06 94 1008.6
20260506223058 59 215 0.0 1.7 0.00 0.06 0.06 93 1008.4
20260506221557 59 219 0.0 2.6 0.00 0.06 0.06 93 1008.4
20260506220056 59 184 0.0 2.6 0.00 0.06 0.06 93 1008.2
20260506214603 59 267 0.0 2.6 0.00 0.06 0.06 93 1008.1
20260506213055 59 267 0.0 2.6 0.00 0.06 0.06 93 1008.1
20260506211600 59 246 0.0 1.7 0.00 0.06 0.06 93 1008.1
20260506210055 59 204 0.0 2.6 0.00 0.06 0.06 93 1007.7
20260506204553 59 263 0.0 1.7 0.01 0.06 0.06 92 1007.9
20260506203050 59 206 0.0 3.5 0.01 0.06 0.06 92 1008.0
20260506201549 59 189 0.0 0.9 0.01 0.06 0.06 91 1008.1
20260506200050 59 59 0.0 3.5 0.01 0.06 0.06 91 1008.3
20260506194546 59 263 0.0 3.5 0.00 0.05 0.05 90 1008.5
20260506193044 59 213 0.0 2.6 0.00 0.05 0.05 90 1008.8
20260506191551 59 197 0.9 4.3 0.00 0.05 0.05 89 1008.7
20260506190043 60 262 0.0 2.6 0.01 0.05 0.05 90 1008.7
20260506184541 60 240 0.0 3.5 0.02 0.05 0.05 89 1008.9
20260506183040 60 189 0.0 5.2 0.02 0.05 0.05 89 1009.1
20260506181544 60 281 1.7 3.5 0.03 0.05 0.05 89 1009.4
20260506180046 60 281 0.0 1.7 0.03 0.04 0.04 89 1009.6
20260506174537 60 281 0.0 1.7 0.03 0.03 0.03 89 1009.4
20260506173041 60 221 0.0 2.6 0.03 0.03 0.03 88 1009.4
20260506171535 61 243 0.0 2.6 0.02 0.02 0.02 86 1009.6
20260506170032 61 263 0.0 1.7 0.01 0.01 0.01 85 1009.8
20260506164530 62 259 0.0 3.5 0.00 0.00 0.00 81 1010.2
20260506163028 63 263 0.0 4.3 0.00 0.00 0.00 77 1010.7
20260506161533 64 265 0.9 4.3 0.00 0.00 0.00 75 1010.5
20260506160028 65 235 0.0 4.3 0.00 0.00 0.00 75 1010.6
20260506154526 65 183 0.9 7.8 0.00 0.00 0.00 72 1010.6
20260506153024 66 275 0.0 7.0 0.00 0.00 0.00 73 1010.8
20260506151524 66 275 0.0 7.0 0.00 0.00 0.00 71 1010.7
20260506150023 66 261 0.9 4.3 0.00 0.00 0.00 73 1010.8
20260506144522 66 263 0.9 3.5 0.00 0.00 0.00 72 1010.6
20260506143026 66 203 0.9 5.2 0.00 0.00 0.00 73 1010.7
20260506141523 66 268 0.9 6.1 0.00 0.00 0.00 73 1010.9
20260506140020 65 281 0.9 6.1 0.00 0.00 0.00 74 1011.0
20260506134515 64 272 1.7 9.6 0.00 0.00 0.00 76 1011.0
20260506133011 63 281 0.9 5.2 0.00 0.00 0.00 78 1011.1
20260506131508 62 268 0.0 2.6 0.00 0.00 0.00 81 1010.8
20260506130006 61 150 0.0 5.2 0.00 0.00 0.00 81 1010.8
20260506124505 61 264 0.9 4.3 0.00 0.00 0.00 81 1010.8
20260506123002 61 210 0.0 1.7 0.00 0.00 0.00 82 1011.0
20260506121501 60 266 0.9 4.3 0.00 0.00 0.00 84 1011.2
20260506120111 58 167 1.7 4.3 0.00 0.00 0.00 88 1011.5
20260506114559 56 163 0.0 2.6 0.00 0.00 0.00 93 1011.5
20260506113100 55 173 0.0 1.7 0.00 0.00 0.00 95 1011.3
20260506111559 53 263 0.0 0.0 0.00 0.00 0.00 94 1011.3
20260506110057 52 263 0.0 0.0 0.00 0.00 0.00 94 1011.6
20260506104559 52 263 0.0 0.0 0.00 0.00 0.00 93 1011.4
20260506103055 51 263 0.0 0.0 0.00 0.00 0.00 93 1011.4
20260506101553 51 263 0.0 0.0 0.00 0.00 0.00 93 1011.3